Tracking 20369 objects as of 18-Feb-2020
HD Live streaming from Space Station
objects crossing your sky now

EDUSAT

Track EDUSAT now!
10-day predictions
EDUSAT is classified as:


NORAD ID: 37788
Int'l Code: 2011-044A
Perigee: 639.0 km
Apogee: 691.2 km
Inclination: 98.4 °
Period: 97.9 minutes
Semi major axis: 7036 km
RCS: 0.1421 m2 (medium)
Launch date: August 17, 2011
Source: Italy (IT)
Launch site: Orenburg, Russia (OREN)

EduSat is a microsatellite built by the University of Rome.
aabbcc
Your satellite tracking list
Your tracking list is empty




NASA's NSSDC Master Catalog

Two Line Element Set (TLE):
1 37788U 11044A   20048.90016255 +.00000050 +00000-0 +17020-4 0  9994
2 37788 098.3717 201.8623 0037060 239.9298 280.8392 14.70971482456314
Source of the keplerian elements: AFSPC